Location: Brno
(49.2000°N, 16.6330°E)
Time: 03:12:28
(UTC+01:00)

Cosmos 2227 - Visible Passes

Search period start: 25 February 2017 00:00
Search period end: 07 March 2017 00:00
Orbit: 834 x 862 km, 71.0° (Epoch: 24 February)

Date Brightness Start Highest point End Pass type
(mag) Time Alt. Az. Time Alt. Az. Time Alt. Az.
25 Feb 6.7 04:53:32 10° N 04:56:50 15° NNE 05:00:08 10° ENE visible
26 Feb 6.7 04:40:26 10° N 04:43:41 15° NNE 04:46:57 10° ENE visible
27 Feb 6.8 04:27:19 10° N 04:30:33 15° NNE 04:33:47 10° ENE visible
28 Feb 6.8 04:14:13 10° N 04:17:26 15° NNE 04:20:37 10° ENE visible
28 Feb 5.2 05:57:26 10° NNW 06:03:03 51° NE 06:08:40 10° SE visible
01 Mar 6.8 04:01:07 10° N 04:04:17 15° NNE 04:07:27 10° ENE visible
01 Mar 5.2 05:44:19 10° NNW 05:49:56 50° NE 05:55:32 10° SE visible
02 Mar 6.9 03:48:01 10° N 03:51:09 15° NNE 03:54:17 10° ENE visible
02 Mar 5.2 05:31:13 10° NNW 05:36:49 50° NE 05:42:24 10° SE visible
03 Mar 7.2 00:05:47 10° N 00:05:47 10° N 00:05:52 10° N visible
03 Mar 6.9 03:34:55 10° N 03:38:01 15° NNE 03:41:07 10° ENE visible
03 Mar 5.2 05:18:07 10° NNW 05:23:42 49° NE 05:29:16 10° SE visible
03 Mar 7.1 23:52:15 11° N 23:52:15 11° N 23:52:47 10° N visible
04 Mar 6.9 03:21:49 10° N 03:24:53 14° NNE 03:27:57 10° ENE visible
04 Mar 5.2 05:05:00 10° NNW 05:10:35 48° NE 05:16:09 10° SE visible
04 Mar6.820:14:45NE20:14:45NE20:00:33Svisible
04 Mar 6.8 21:56:36 11° NNE 21:56:36 11° NNE 21:56:46 10° NNE visible
04 Mar 7.0 23:38:27 12° NNW 23:38:27 12° NNW 23:39:42 10° N visible
05 Mar 7.0 03:08:43 10° N 03:11:45 14° NNE 03:14:47 10° ENE visible
05 Mar 5.3 04:51:53 10° NNW 04:57:27 48° NE 05:03:01 10° SE visible
05 Mar 5.4 19:48:46 10° S 20:00:21 - NE 19:51:18 25° SSE visible
05 Mar 6.4 21:33:00 10° WSW 21:42:07 18° N 21:43:40 10° NNE visible
05 Mar 7.0 23:23:52 12° NNW 23:24:14 12° NNW 23:26:36 10° N visible
06 Mar 7.0 02:55:37 10° N 02:58:37 14° NNE 03:01:36 10° ENE visible
06 Mar 5.3 04:38:46 10° NNW 04:44:21 47° NE 04:49:53 10° SE visible
06 Mar 4.5 19:35:40 10° S 19:40:57 42° ESE 19:46:17 10° NE visible
06 Mar 5.4 21:19:52 10° WSW 21:25:11 40° NW 21:30:34 10° NNE visible
06 Mar 7.0 23:08:42 10° NW 23:11:06 13° NNW 23:13:31 10° N visible
